www.pogodaiklimat.ru

Погода и климат >> Архив погоды >> Бельгия >> Chievres


ПОГОДА в Chievres

  • Прогноз погоды в Chievres
  • Монитор погоды в Chievres
  • Климат города

АРХИВ ПОГОДЫ в Chievres

Время (UTC), дата Ветер
(напр.,м/с)
 
Видим.   Явления Облачность Т
(С)
Тd
(С)
f
(%)
Тe
(С)
Тes
(С)
Комфортность P
(гПа)
Po
(гПа)
Тmin
(С)
Tmax
(С)
R
(мм)
R24
(мм)
S
(см)
01 16.06
{2}
18 км н/о +12.0 +10.3 89 1017.2 1010.1
02 16.06 Ю 2
{2}
19 км н/о +11.1 +9.7 91 +10 +10 1017.1 1009.8
03 16.06 Ю 2
{3}
17 км н/о +10.3 +9.0 92 +9 +9 1016.7 1009.6
05 16.06 нст 2
{2}
20 км н/о +12.0 +10.3 89 +11 +11 1016.7 1009.7
04 16.06 Ю 2
{3}
14 км н/о +10.5 +9.3 92 +9 +9 1016.7 1009.6
06 16.06 ЮЗ 2
{3}
18 км н/о +13.0 +10.7 86 +12 +12 1016.6 1009.5 +10.3
07 16.06 Ю 2
{3}
19 км н/о +15.0 +11.3 79 +15 +15 1016.3 1009.2
08 16.06 З 3
{7}
20 км н/о +15.3 +11.2 77 +15 +15 1017.2 1010.2
09 16.06 ЮЗ 3
{7}
20 км н/о +15.8 +10.6 71 +15 +15 1017.0 1010.0
11 16.06 ЮЗ 4
{6}
20 км н/о +19.7 +10.1 54 +21 +21 комфорт 1016.2 1009.2
10 16.06 ЮЗ 2
{5}
20 км н/о +18.2 +11.1 63 +19 +19 1016.7 1009.7
12 16.06 З 4
{7}
20 км н/о +20.7 +11.1 54 +23 +23 комфорт 1016.0 1009.1
13 16.06 ЮЗ 4
{7}
19 км н/о +20.4 +11.2 55 +22 +22 комфорт 1015.8 1008.8
14 16.06 З 4
{8}
20 км н/о +19.6 +11.3 59 +21 +21 комфорт 1016.0 1009.1
15 16.06 З 4
{8}
20 км н/о +19.5 +10.5 56 +21 +21 комфорт 1015.8 1009.0
17 16.06 З 5
{9}
20 км н/о +19.1 +9.7 54 +20 +20 1016.3 1009.3
16 16.06 З 5
{9}
20 км н/о +19.8 +9.9 53 +21 +21 комфорт 1016.2 1009.2
18 16.06 З 4
{9}
20 км н/о +19.2 +9.5 53 +20 +20 1016.3 1009.3 +20.8
19 16.06 З 3
{8}
20 км н/о +18.0 +9.5 58 +18 +18 1016.7 1009.7
20 16.06 З 2
{7}
20 км н/о +16.3 +9.9 66 +16 +16 1017.0 1010.0
21 16.06
{8}
20 км н/о +13.3 +9.7 79 1017.2 1010.2
23 16.06 ЮЗ 3
{4}
20 км н/о +14.6 +10.5 76 +14 +14 1017.2 1010.1
22 16.06 ЮЗ 2
{3}
20 км н/о +14.1 +10.6 79 +14 +14 1017.2 1010.1
00 17.06 ЮЗ 2
{8}
20 км н/о +14.3 +10.6 78 +14 +14 1017.2 1010.1
01 17.06 ЮЗ 3
{4}
20 км н/о +13.8 +11.0 83 +13 +13 1017.3 1010.2
02 17.06 ЮЗ 3
{5}
20 км н/о +14.5 +10.9 79 +14 +14 1017.5 1010.3
03 17.06 ЮЗ 3
{6}
20 км н/о +14.2 +11.3 83 +13 +13 1017.8 1010.7
05 17.06 ЮЗ 3
{5}
19 км н/о +13.3 +10.4 83 +12 +12 1017.8 1010.7
04 17.06 ЮЗ 4
{8}
18 км н/о +13.2 +10.3 83 +11 +11 1017.8 1010.7
06 17.06 ЮЗ 5
{8}
20 км н/о +13.3 +10.4 83 +11 +11 1018.1 1010.8 +12.8
07 17.06 ЮЗ 4
{8}
20 км н/о +14.1 +10.7 80 +13 +13 1018.7 1011.6
08 17.06 З 4
{8}
20 км н/о +15.1 +10.1 72 +14 +14 1019.2 1012.1
09 17.06 ЮЗ 5
{8}
20 км н/о +15.3 +10.1 71 +14 +14 1019.2 1012.2
11 17.06 ЮЗ 5
{9}
20 км н/о +15.4 +9.8 69 +14 +14 1019.5 1012.5
10 17.06 ЮЗ 4
{7}
20 км н/о +15.6 +9.8 68 +15 +15 1019.2 1012.1
12 17.06 ЮЗ 5
{9}
20 км н/о +16.1 +9.9 67 +15 +15 1019.7 1012.6
13 17.06 З 6
{9}
20 км н/о +17.6 +10.4 63 +17 +17 1019.6 1012.6
14 17.06 З 6
{10}
19 км н/о +17.5 +9.9 61 +17 +17 1019.7 1012.7
15 17.06 З 5
{10}
20 км н/о +18.5 +9.7 57 +19 +19 1019.7 1012.7
17 17.06 З 4
{8}
20 км н/о +17.3 +8.9 58 +17 +17 1020.2 1013.1
16 17.06 ЮЗ 5
{9}
20 км н/о +18.1 +9.1 56 +18 +18 1019.8 1012.8
18 17.06 ЮЗ 2
{10}
20 км н/о +17.1 +10.5 65 +17 +17 1020.2 1013.2 +19.1
19 17.06
{4}
20 км н/о +16.6 +11.5 72 1020.3 1013.2
20 17.06
{2}
20 км н/о +15.8 +12.3 80 1020.3 1013.2
21 17.06 ЮЗ 2
{4}
20 км н/о +15.3 +12.3 82 +15 +15 1021.0 1013.8
23 17.06 ЮЗ 2
{2}
20 км н/о +15.1 +12.0 82 +15 +15 1020.7 1013.7
22 17.06 ЮЗ 2
{3}
20 км н/о +15.1 +12.2 83 +15 +15 1020.8 1013.7
00 18.06 Ю 2
{4}
20 км н/о +15.0 +11.9 82 +15 +15 1020.6 1013.5
01 18.06 Ю 2
{3}
20 км н/о +14.1 +11.8 86 +14 +14 1020.2 1013.1
02 18.06 Ю 2
{4}
20 км н/о +14.4 +11.9 85 +14 +14 1020.2 1013.1
03 18.06 ЮЗ 4
{5}
20 км н/о +15.0 +12.0 82 +14 +14 1020.2 1013.1
05 18.06 ЮЗ 3
{4}
20 км н/о +15.3 +12.9 86 +15 +15 1020.5 1013.5
04 18.06 ЮЗ 3
{6}
20 км н/о +14.8 +12.4 86 +14 +14 1020.5 1013.3
06 18.06 ЮЗ 4
{7}
20 км н/о +16.7 +14.0 84 +16 +16 1020.5 1013.5 +13.8
07 18.06 ЮЗ 5
{8}
20 км н/о +16.8 +14.4 86 +16 +16 1020.7 1013.7
08 18.06 ЮЗ 5
{8}
20 км н/о +16.7 +14.6 87 +16 +16 1021.1 1014.1
09 18.06 ЮЗ 4
{8}
20 км н/о +17.9 +14.7 82 +18 +18 1021.2 1014.2
11 18.06 З 6
{9}
11 км сильн. морось {дождь} н/о +16.2 +15.0 93 +15 +15 1022.0 1014.8
10 18.06 ЮЗ 3
{7}
20 км {дождь, морось} н/о +17.2 +15.6 90 +17 +17 1021.5 1014.3
12 18.06 З 6
{9}
20 км {дождь, морось} н/о +19.5 +14.7 74 +21 +21 комфорт 1021.8 1014.8 0.1
13 18.06 З 6
{10}
20 км н/о +18.4 +12.8 70 +18 +18 1022.2 1015.2
14 18.06 З 6
{11}
20 км н/о +19.2 +13.3 69 +20 +20 1022.2 1015.2
15 18.06 ЮЗ 5
{11}
20 км н/о +19.9 +13.5 67 +22 +22 комфорт 1022.1 1015.2
17 18.06 З 5
{10}
20 км н/о +19.4 +12.5 64 +20 +20 1021.7 1014.8
16 18.06 ЮЗ 6
{9}
20 км н/о +19.6 +13.2 67 +21 +21 комфорт 1021.8 1014.8
18 18.06 ЮЗ 4
{11}
20 км н/о +19.0 +12.4 66 +20 +20 1022.0 1015.0 +20.3 0.1
19 18.06 З 3
{6}
20 км н/о +18.3 +12.9 71 +19 +19 1022.0 1015.0
20 18.06 З 4
{6}
20 км н/о +17.1 +12.2 73 +17 +17 1022.5 1015.5
21 18.06 ЮЗ 3
{6}
20 км н/о +15.6 +11.9 79 +15 +15 1023.2 1016.1
23 18.06 ЮЗ 4
{8}
20 км н/о +14.5 +12.2 86 +13 +13 1023.2 1016.2
22 18.06 ЮЗ 4
{7}
20 км н/о +14.8 +11.3 80 +14 +14 1023.3 1016.2
00 19.06 ЮЗ 3
{8}
20 км н/о +14.5 +13.0 91 +14 +14 1023.1 1016.0
01 19.06 ЮЗ 4
{6}
20 км н/о +15.1 +13.5 90 +14 +14 1023.1 1016.0
02 19.06 ЮЗ 3
{5}
20 км н/о +15.3 +14.0 92 +15 +15 1023.2 1016.2
03 19.06 ЮЗ 3
{6}
20 км н/о +15.6 +14.4 93 +15 +15 1023.6 1016.6
05 19.06 ЮЗ 4
{7}
20 км н/о +16.2 +14.8 91 +15 +15 1024.2 1017.2
04 19.06 ЮЗ 4
{5}
20 км н/о +15.8 +14.6 93 +15 +15 1024.0 1017.0
06 19.06 ЮЗ 4
{7}
20 км н/о +16.6 +15.2 91 +16 +16 1024.5 1017.5 +13.9
07 19.06 ЮЗ 4
{6}
19 км н/о +16.8 +15.2 90 +16 +16 1024.7 1017.7
08 19.06 ЮЗ 3
{6}
20 км н/о +17.5 +15.5 88 +17 +17 1025.2 1018.2
09 19.06 З 3
{6}
20 км н/о +17.9 +15.5 86 +18 +18 1025.2 1018.2
10 19.06 З 3
{6}
17 км {дождь, морось} н/о +17.7 +15.7 88 +18 +18 1025.4 1018.2
14 19.06 З 3
{5}
20 км н/о +19.8 +15.6 77 +22 +22 комфорт 1025.4 1018.3
15 19.06 З 3
{5}
15 км н/о +20.1 +15.4 74 +23 +23 комфорт 1025.2 1018.2
16 19.06 З 2
{5}
20 км н/о +19.7 +15.9 79 +22 +22 комфорт 1025.0 1018.1
17 19.06 З 2
{4}
20 км н/о +19.3 +15.8 80 +22 +22 комфорт 1024.9 1017.8
18 19.06 З 2
{5}
20 км н/о +19.2 +16.0 82 +21 +21 комфорт 1024.7 1017.7 +20.2 0.0
20 19.06 З 2
{4}
20 км н/о +18.3 +15.3 83 +19 +19 1024.7 1017.7
19 19.06 З 3
{4}
20 км н/о +18.8 +15.7 82 +20 +20 1024.7 1017.7
21 19.06 З 2
{5}
20 км н/о +17.8 +15.0 84 +18 +18 1025.2 1018.1
22 19.06
{5}
20 км н/о +17.5 +14.7 84 1025.0 1018.0
23 19.06 З 2
{3}
20 км н/о +17.2 +14.8 86 +18 +18 1024.9 1017.8
00 20.06
{5}
20 км н/о +17.0 +14.8 87 1024.5 1017.6
02 20.06
{2}
20 км н/о +16.2 +15.3 94 1024.0 1016.8
01 20.06 ЮЗ 2
{4}
20 км н/о +16.7 +14.9 89 +17 +17 1024.2 1017.2
03 20.06 нст 1
{4}
20 км н/о +16.2 +15.0 93 +17 +17 1023.7 1016.6
04 20.06 ЮЗ 2
{4}
20 км н/о +16.3 +15.0 92 +16 +16 1023.5 1016.3
05 20.06 ЮЗ 2
{4}
20 км н/о +16.6 +15.2 91 +17 +17 1023.3 1016.2
06 20.06 ЮЗ 4
{6}
20 км н/о +17.1 +14.5 85 +17 +17 1023.2 1016.2 +16.2
08 20.06 ЮЗ 3
{5}
20 км н/о +18.3 +14.8 80 +19 +19 1023.3 1016.3
07 20.06 ЮЗ 4
{7}
20 км н/о +17.7 +14.8 83 +17 +17 1023.2 1016.2
09 20.06 З 3
{7}
15 км н/о +20.2 +15.3 73 +23 +23 комфорт 1023.1 1016.1
10 20.06 ЮЗ 3
{6}
20 км н/о +22.6 +16.0 66 +27 +27 душно 1022.7 1015.7
11 20.06 З 3
{7}
20 км н/о +23.3 +16.4 65 +28 +28 душно 1022.3 1015.5
12 20.06 З 4
{7}
19 км н/о +23.9 +17.3 67 +28 +28 душно 1021.8 1015.0
14 20.06 З 4
{7}
20 км н/о +24.1 +16.1 61 +27 +27 жарко 1021.0 1014.1
13 20.06 З 4
{7}
19 км н/о +24.2 +16.7 63 +28 +28 душно 1021.3 1014.6
15 20.06 З 4
{7}
18 км н/о +25.3 +15.9 56 +29 +29 душно 1020.7 1013.7
16 20.06 З 3
{6}
20 км н/о +25.4 +16.1 56 +29 +29 душно 1020.2 1013.3
17 20.06 З 3
{6}
20 км н/о +24.9 +15.6 56 +28 +28 жарко 1019.7 1013.0
18 20.06 З 4
{7}
20 км н/о +24.5 +15.0 55 +27 +27 жарко 1019.5 1012.7 +25.6
20 20.06 З 3
{5}
20 км н/о +20.8 +14.6 68 +24 +24 комфорт 1019.3 1012.3
19 20.06 З 3
{5}
20 км н/о +23.2 +15.6 62 +27 +27 душно 1019.2 1012.3
21 20.06 З 2
{5}
19 км н/о +18.8 +14.6 77 +20 +20 1019.6 1012.7
22 20.06 ЮЗ 2
{4}
17 км н/о +16.0 +14.1 88 +16 +16 1019.2 1012.2
23 20.06 ЮЗ 2
{4}
20 км н/о +16.2 +13.8 86 +16 +16 1019.2 1012.1
00 21.06 ЮЗ 2
{5}
20 км н/о +15.8 +13.9 88 +16 +16 1019.1 1012.0
02 21.06 З 3
{4}
19 км н/о +14.7 +13.8 94 +14 +14 1018.5 1011.3
01 21.06 З 2
{4}
20 км н/о +15.3 +13.8 91 +15 +15 1018.6 1011.5
03 21.06 З 2
{4}
15 км н/о +14.3 +13.9 97 +14 +14 1018.5 1011.3
04 21.06 З 5
{6}
10 км н/о +15.1 +14.1 94 +14 +14 1018.7 1011.6
05 21.06 З 5
{7}
11 км н/о +15.3 +14.0 92 +14 +14 1019.2 1012.1
06 21.06 СЗ 6
{9}
20 км н/о +15.6 +12.1 80 +14 +14 1019.7 1012.7 +14.1
08 21.06 СЗ 7
{10}
20 км н/о +15.3 +8.6 64 +14 +14 1021.6 1014.5
07 21.06 СЗ 6
{10}
20 км н/о +14.8 +9.4 70 +13 +13 1020.8 1013.7
09 21.06 СЗ 7
{10}
20 км н/о +15.1 +7.7 61 +13 +13 1022.3 1015.2
10 21.06 СЗ 5
{10}
20 км н/о +17.5 +5.9 46 +17 +17 1022.7 1015.6
11 21.06 СЗ 6
{10}
16 км н/о +17.5 +5.9 46 +17 +17 1023.1 1016.1
12 21.06 СЗ 7
{11}
20 км н/о +16.5 +4.2 44 +15 +15 1023.8 1016.7
14 21.06 С 9
{12}
18 км н/о +16.6 +5.2 47 +15 +15 1025.2 1018.1
13 21.06 С 7
{10}
20 км н/о +17.5 +4.9 43 +17 +17 1024.4 1017.2
15 21.06 СЗ 7
{13}
20 км н/о +16.0 +3.6 44 +15 +15 1025.9 1018.7
16 21.06 С 7
{12}
20 км н/о +15.6 +4.4 47 +14 +14 1026.4 1019.2
17 21.06 С 7
{10}
20 км н/о +14.6 +5.9 56 +13 +13 1026.7 1019.6
18 21.06 С 7
{13}
20 км н/о +14.6 +4.6 51 +13 +13 1027.2 1020.0 +18.5
20 21.06 С 3
{8}
20 км н/о +11.8 +4.7 62 +10 +10 1027.9 1020.7
19 21.06 СЗ 6
{10}
20 км н/о +13.5 +4.3 54 +12 +12 1027.7 1020.5
21 21.06
{10}
20 км н/о +10.5 +4.4 66 1028.4 1021.1
22 21.06
{2}
20 км н/о +9.1 +4.6 73 1028.5 1021.2
23 21.06
{1}
20 км н/о +7.3 +4.7 84 1028.5 1021.1
00 22.06 З 2
{10}
20 км н/о +6.6 +4.1 84 +4 +4 1028.5 1021.2
02 22.06 З 2
{3}
20 км н/о +6.7 +4.5 86 +4 +4 1028.4 1021.0
01 22.06 ЮЗ 2
{3}
20 км н/о +6.6 +4.3 85 +4 +4 1028.2 1020.8
03 22.06 З 2
{3}
20 км н/о +6.6 +4.2 85 +4 +4 1028.5 1021.1
04 22.06 З 2
{3}
20 км н/о +7.4 +4.5 82 +5 +5 1028.7 1021.2
05 22.06 З 3
{4}
20 км н/о +9.6 +6.4 80 +7 +7 1028.5 1021.2
06 22.06 З 3
{5}
20 км н/о +12.1 +7.8 75 +11 +11 1028.5 1021.2 +5.9
08 22.06 СЗ 5
{9}
20 км н/о +15.9 +8.5 61 +15 +15 1028.7 1021.6
07 22.06 З 5
{8}
18 км н/о +14.1 +8.1 67 +12 +12 1028.5 1021.2
09 22.06 СЗ 7
{11}
19 км н/о +17.3 +5.4 45 +16 +16 1028.7 1021.7
10 22.06 С 7
{12}
20 км н/о +18.0 +4.8 42 +17 +17 1028.9 1021.7
11 22.06 С 7
{11}
20 км н/о +17.9 +4.9 42 +17 +17 1028.7 1021.7
12 22.06 С 6
{12}
20 км н/о +18.3 +4.7 41 +18 +18 1029.0 1022.0
14 22.06 С 7
{12}
18 км н/о +18.5 +5.9 44 +18 +18 1029.0 1021.8
13 22.06 С 8
{11}
20 км н/о +18.4 +4.9 41 +18 +18 1029.0 1021.8
15 22.06 С 7
{12}
20 км н/о +17.5 +4.6 42 +17 +17 1029.2 1022.2
16 22.06 С 7
{12}
15 км н/о +17.2 +3.2 39 +16 +16 1029.4 1022.2
17 22.06 С 6
{11}
20 км н/о +16.8 +3.3 40 +16 +16 1029.5 1022.5
18 22.06 СЗ 6
{12}
20 км н/о +16.1 +3.9 44 +15 +15 1029.5 1022.3 +18.9
20 22.06 С 3
{7}
20 км н/о +12.6 +6.8 68 +11 +11 1029.9 1022.6
19 22.06 С 5
{9}
20 км н/о +14.6 +4.3 50 +13 +13 1029.7 1022.6
21 22.06 С 3
{9}
19 км н/о +10.8 +6.8 76 +9 +9 1030.2 1023.1
22 22.06 СЗ 2
{3}
15 км н/о +9.8 +6.6 80 +8 +8 1030.5 1023.2
23 22.06 С 2
{4}
16 км н/о +9.2 +6.4 83 +8 +8 1030.5 1023.2
00 23.06
{9}
15 км н/о +8.0 +6.3 89 1030.2 1023.0
01 23.06
{2}
13 км н/о +6.3 +5.1 92 1030.0 1022.6

 

Местоположение метеостанции Chievres (Бельгия): широта 50.57 долгота 3.83 высота над уровнем моря 63 м.

В архиве по умолчанию представлена погода в Chievres за последнюю неделю. Архивные данные за месяц целиком и за предыдущие месяцы, начиная с января 2011 года, Вы можете получить, выбрав интересующий диапазон дат из раскрывающегося списка и нажав кнопку "Ввод!".


*Определитесь, кто Вы:
робот инопланетянин человек

Внимание! Время в таблицах - всемирное. Для получения местного времени необходимо прибавить поправку, которая в Chievres равна 1 ч.

Смотрите также архив погоды в соседних городах и на ближайших метеорологических станциях:

Погода в Semmerzake (Бельгия) (42 км)
Погода в Uccle (Бельгия) (45 км)
Погода в Charleroi (Бельгия) (45 км)
Погода в Melle (Бельгия) (46 км)
Погода в Lille (Франция) (52 км)
Погода в Ernage (Бельгия) (61 км)
Погода в Bruxelles (Бельгия) (61 км)
Погода в Beitem (Бельгия) (62 км)
Погода в Gent (Бельгия) (68 км)
Погода в Beauvechain (Бельгия) (69 км)

Пояснения к столбцам:

Ветер - указаны скорость ветра в м/с - средняя за 10 мин, порывы в срок и между сроками (в фигурных скобках) и направление, откуда дует ветер: С - северный, СВ - северо-восточный, В - восточный, ЮВ - юго-восточный, Ю - южный, ЮЗ - юго-западный, З - западный, СЗ - северо-западный.
Видимость - горизонтальная дальность видимости в метрах или километрах. При видимости от 1 до 10 км при отсутствии осадков обычно наблюдается дымка, при ухудшении видимости до 1 км и менее - туман. В сухую погоду видимость может ухудшаться дымом, пылью или мглою.
Явления - указаны атмосферные явления, наблюдавшиеся в срок или в последний час перед сроком; фигурными скобками обозначены явления, наблюдавшиеся между сроками (за 1-3 часа до срока); квадратными скобками обозначены град или гололедные отложения с указанием их диаметра в мм.
Облачность - указаны через наклонную черту общая и нижняя облачность в баллах и высота нижней границы облаков в метрах; квадратными скобками обозначены формы облаков: Ci - перистые, Cs - перисто-слоистые, Cc - перисто-кучевые, Ac - высококучевые, As - высокослоистые, Sc - слоисто-кучевые, Ns - слоисто-дождевые, Cu - кучевые, Cb - кучево-дождевые. Подробнее классификацию облаков см. в Атласе облаков (PDF).
T - Температура воздуха - температура, измеренная на высоте 2 м над землей.
Td - Температура точки росы - температура, при понижении до которой содержащийся в воздухе водяной пар достигнет насыщения.
f - Относительная влажность воздуха - влажноcть воздуха, измеренная на высоте 2 м над землей.
Te - Эффективная температура - температура, которую ощущает одетый по сезону человек в тени. Характеристика душности погоды. При расчете учитывается влияние влажности воздуха и скорости ветра на теплоощущения человека.
Tes - Эффективная температура на солнце - температура, которую ощущает человек, с поправкой на солнечный нагрев. Характеристика знойности погоды. Зависит от высоты солнца над горизонтом, облачности и скорости ветра. Ночью, в пасмурную погоду, а также при ветре 12 м/с и более поправка равна нулю.
P - Атмосферное давление - приведенное к уровню моря атмосферное давление.
Po - Атмосферное давление - измеренное на уровне метеостанции атмосферное давление.
Tmin - Минимальная температура - минимум температуры воздуха на высоте 2 м над землей.
Tmax - Максимальная температура - максимум температуры воздуха на высоте 2 м над землей.
R - Количество осадков - Количество выпавших осадков за период времени, мм. При наведении курсора мыши на число - период времени, за который выпало указанное количество осадков.
R24 - Количество осадков - Количество выпавших осадков за 24 часа, мм.
S - Снежный покров - Высота снежного покрова, см. При наведении курсора мыши на число - состояние снежного покрова и степень покрытия местности в баллах.